SCP
0 0 0 0 0 0 0 0 0 0 1 1 1 1 1 1 0 0 0 0 0 0 1 1 1 1 1 1 1 1 1 1 1 1 0 0 0 0 0 1 1 1 1
0 0 0 0 0 0 0 0 0 0 1 1 1 1 0 0 0 0 0 0 0 0 1 1 1 1 1 1 1 1 1 1 1 1 0 0 0 0 0 0 0 0 0
0 0 0 0 0 0 0 0 0 0 1 1 1 1 0 0 0 0 0 0 0 1 1 1 1 1 1 1 1 1 1 1 0 0 0 0 0 0 0 0 0 0 0
0 0 0 0 0 0 0 0 0 0 1 1 1 1 1 0 0 0 0 0 0 1 1 1 1 1 1 1 1 1 0 0 0 0 0 0 0 0 0 0 0 0 0
0 0 0 0 0 0 0 0 0 0 0 1 1 1 1 1 0 0 0 0 0 0 0 0 0 0 0 0 0 0 0 0 0 0 0 0 0 0 0 0 0 0 0
0 0 0 0 0 0 0 0 0 0 0 0 1 1 1 1 0 0 0 0 0 0 0 0 0 0 0 0 0 0 0 0 0 0 0 0 0 0 0 0 0 0 0
0 0 0 0 0 0 0 0 0 0 0 0 0 1 1 1 0 0 0 0 0 0 0 0 0 0 0 0 0 0 0 0 0 0 0 1 1 1 1 0 0 0 0
0 0 0 0 0 0 0 0 0 0 0 0 0 0 0 0 0 0 0 0 0 0 0 0 0 0 0 0 0 0 0 0 0 0 0 0 0 0 0 0 0 0 0
0 0 0 0 0 0 0 0 0 0 0 0 0 0 0 0 0 0 0 0 0 0 0 0 0 0 0 0 0 0 0 0 0 0 0 0 0 0 0 0 0 0 0
0 0 0 0 0 0 0 0 0 0 0 0 0 0 0 0 0 0 0 0 0 0 0 0 0 0 0 0 0 0 0 0 0 0 0 0 0 0 0 0 0 0 0
0 0 0 0 0 0 0 0 0 0 0 0 0 0 0 0 0 0 0 0 0 0 0 0 0 0 0 0 0 0 0 0 0 0 0 0 0 0 0 0 0 0 0
0 0 0 0 0 0 0 0 0 0 0 0 0 0 0 0 0 0 0 0 0 0 0 0 0 0 0 0 0 0 0 0 0 0 0 0 0 0 0 0 0 0 0
0 0 0 0 0 0 0 0 0 0 0 0 0 0 0 0 0 0 0 0 0 0 0 0 0 0 0 0 0 0 0 0 0 0 0 0 0 0 0 0 0 0 0
0 0 0 0 0 0 0 0 0 0 0 0 0 0 0 0 0 0 0 0 0 0 0 0 0 0 0 0 0 0 0 0 0 0 0 0 0 0 0 0 0 0 0
0 0 0 0 0 0 0 0 0 0 0 0 0 0 0 0 0 0 0 0 0 0 0 0 0 0 0 0 0 0 0 0 0 0 0 0 0 0 0 0 0 0 0
0 0 0 0 0 0 0 0 0 0 0 0 0 0 0 0 0 0 0 0 0 0 0 0 0 0 0 0 0 0 0 0 0 0 0 0 0 0 0 0 0 0 0
0 0 0 0 0 0 0 0 0 0 0 0 0 0 0 0 0 0 0 0 0 0 0 0 0 0 0 0 0 0 0 0 0 0 0 0 0 0 0 0 0 0 0
0 0 0 0 0 0 0 0 0 0 0 0 0 0 0 0 0 0 0 0 0 0 0 0 0 0 0 0 0 0 0 0 0 0 0 0 0 0 0 0 0 0 0
0 0 0 0 0 0 0 0 0 0 0 0 0 0 0 0 0 0 0 0 0 0 0 0 0 0 0 0 0 0 0 0 0 0 0 0 0 0 0 0 0 0 0
0 0 0 0 0 0 0 0 0 0 0 0 0 0 0 0 0 0 0 0 0 0 0 0 0 0 0 0 0 0 0 0 0 0 0 0 0 0 0 0 0 0 0
0 0 0 0 0 0 0 0 0 0 0 0 0 0 0 0 0 0 0 0 0 0 0 0 0 0 0 0 0 0 0 0 0 0 0 0 0 0 0 0 0 0 0
0 0 0 0 0 0 0 0 0 0 0 0 0 0 0 0 0 0 0 0 0 0 0 0 0 0 0 0 0 0 0 0 0 0 0 0 0 0 0 0 0 0 0
0 0 0 0 0 0 0 0 0 0 0 0 0 0 0 0 0 0 0 0 0 0 0 0 0 0 0 0 0 0 0 0 0 0 0 0 0 0 0 0 0 0 0
0 0 0 0 0 0 0 0 0 0 0 0 0 0 0 0 0 0 0 0 0 0 0 0 0 0 0 0 0 0 0 0 0 0 0 0 0 0 0 0 0 0 0
0 0 0 0 0 0 0 0 0 0 0 0 0 0 0 0 0 0 0 0 0 0 0 0 0 0 0 0 0 0 0 0 0 0 0 0 0 0 0 0 0 0 0
0 0 0 0 0 0 0 0 0 0 0 0 0 0 0 0 0 0 0 0 0 0 0 0 0 0 0 0 0 0 0 0 0 0 0 0 0 0 0 0 0 0 0
Wind_Speed
5 4 4 4 3 3 3 3 3 3 3 3 3 3 3 3 3 3 4 4 5 5 4 5 5 5 4 4 4 4 5 6 8 6 4 4 5 5 4 4 4 5 4
5 4 4 4 4 3 3 4 3 3 3 3 3 3 3 3 3 3 4 4 5 5 5 5 6 4 5 4 4 5 5 5 6 7 5 4 6 5 5 6 4 4 5
5 4 4 4 4 4 4 4 4 3 3 3 3 3 3 3 3 3 4 4 5 5 5 6 6 5 6 4 5 5 4 4 5 6 6 5 4 4 5 5 5 4 4
5 4 4 4 4 4 4 4 4 4 3 3 3 3 3 3 3 3 3 4 4 4 4 5 5 6 6 5 5 5 4 4 5 5 5 4 4 3 4 4 5 4 4
4 4 4 5 5 4 4 4 4 4 4 4 3 3 3 3 3 3 3 4 4 4 4 4 4 4 5 5 4 4 4 4 4 4 5 4 4 3 4 3 5 5 5
4 4 5 5 5 4 5 5 4 4 4 4 4 4 4 3 3 4 4 4 4 4 4 4 4 4 4 5 5 5 5 6 5 5 5 5 5 4 4 4 4 5 4
4 5 5 5 5 5 5 5 5 4 4 4 4 4 4 5 5 4 4 5 4 4 4 4 3 3 4 4 4 5 5 6 6 6 6 6 5 5 4 5 5 5 6
4 5 5 5 5 5 5 5 5 5 4 4 4 5 5 5 5 5 5 5 5 5 5 4 4 4 3 3 3 4 4 4 4 4 5 5 4 3 4 5 5 5 5
5 6 6 5 5 5 5 6 5 5 5 5 5 5 5 6 5 5 5 4 4 5 4 4 4 4 3 3 3 3 3 2 2 2 3 2 2 2 2 2 2 2 3
6 6 6 6 6 6 6 6 5 5 5 5 5 5 5 6 6 7 6 4 4 4 4 3 4 4 3 4 3 4 4 3 1 1 1 2 2 1 2 2 2 3 2
6 6 6 6 6 6 6 5 5 5 5 5 5 5 5 6 7 7 7 4 4 4 4 3 3 4 4 4 3 3 3 2 1 1 1 1 1 1 1 2 2 2 3
6 6 6 6 5 5 5 5 5 4 5 5 5 5 4 4 5 6 8 7 6 5 4 3 3 4 4 4 3 2 1 1 1 1 1 1 1 1 2 2 2 3 3
6 6 6 6 5 5 5 5 4 4 4 4 4 5 5 4 4 6 7 7 7 5 3 4 3 4 4 3 2 1 1 1 1 1 2 2 1 1 2 2 2 2 3
6 6 5 5 5 5 4 4 4 4 4 4 5 5 5 5 4 3 4 4 4 3 2 2 2 2 1 1 1 1 1 1 1 1 1 1 1 1 1 2 2 2 2
6 6 5 5 5 5 5 5 5 5 6 6 5 5 5 6 6 7 6 4 4 3 1 1 1 1 1 1 0 0 0 0 1 1 1 1 1 1 1 2 2 2 2
5 5 4 4 4 4 5 5 7 7 9 10 9 8 6 8 9 9 9 8 6 4 2 2 2 2 2 2 1 1 1 1 1 1 1 1 1 1 2 2 2 2 3
6 5 4 4 4 4 4 5 5 5 6 7 7 8 7 8 7 7 7 6 4 3 2 2 3 2 2 2 2 2 1 1 1 2 2 2 2 2 2 2 2 2 2
5 5 5 4 4 4 5 5 5 5 5 4 5 7 7 7 6 6 5 3 2 1 2 2 2 2 2 2 2 2 1 1 1 2 2 2 2 2 2 2 2 2 3
5 4 4 4 4 4 4 4 4 5 4 4 4 4 5 6 6 5 4 1 2 2 2 2 2 2 2 2 1 2 2 2 2 2 2 2 2 2 3 3 3 3 3
4 5 4 4 4 4 4 4 4 4 4 4 4 4 4 3 3 3 2 2 2 2 2 2 2 2 1 1 2 2 2 2 2 2 2 2 2 2 3 4 3 3 3
4 4 4 4 3 3 4 4 4 4 4 4 4 4 5 3 2 2 2 2 2 2 2 2 2 2 2 2 2 2 2 2 2 2 2 2 2 3 3 3 3 3 3
3 3 3 3 3 3 3 3 3 4 4 4 4 4 5 3 2 2 2 2 2 2 2 2 2 2 2 2 2 2 3 3 3 2 2 2 3 3 3 3 3 3 3
3 3 3 3 3 4 4 3 3 3 3 4 3 3 3 2 2 3 2 2 2 2 2 2 2 2 2 2 3 3 3 4 3 3 3 3 3 3 3 3 4 4 4
3 3 3 3 3 3 3 4 3 3 3 3 3 3 3 3 3 3 3 2 2 3 3 3 3 4 5 4 3 3 4 4 3 3 5 4 4 4 4 4 4 5 4
3 3 3 3 3 3 4 4 4 4 4 3 3 3 3 3 3 3 3 3 3 3 4 4 3 4 5 6 6 5 6 6 6 4 4 4 5 5 4 5 4 4 4
3 3 3 3 3 4 4 4 4 4 4 4 4 4 3 3 3 3 3 3 3 3 4 4 5 6 7 6 7 8 8 8 7 7 5 4 5 5 5 4 5 5 5
Wind_Direction
8 8 9 7 6 4 358 344 333 324 319 311 302 288 273 263 256 248 245 242 238 240 240 240 243 243 243 244 246 248 249 253 260 270 275 280 278 277 283 287 287 288 287
359 2 8 9 8 7 2 351 342 332 326 317 309 300 291 277 266 253 250 250 247 245 243 241 244 244 245 247 246 248 250 252 257 266 272 275 280 281 289 293 295 291 286
355 358 4 6 3 359 354 346 343 336 325 319 311 299 296 292 281 270 262 258 255 254 249 244 243 239 242 246 247 249 253 257 258 259 269 275 284 290 296 295 292 289 287
348 351 354 353 348 345 345 343 340 335 326 318 308 300 292 288 285 282 278 269 264 262 261 258 253 246 245 244 243 246 250 253 253 256 265 273 280 294 293 293 292 294 292
340 345 346 345 344 343 343 341 337 335 331 319 310 304 298 289 285 286 282 273 268 265 263 262 260 262 265 256 252 248 246 247 248 253 261 270 275 286 280 290 288 297 292
334 336 340 341 339 336 335 331 330 330 329 325 313 304 299 296 301 294 280 270 262 259 261 263 261 247 246 250 257 257 251 246 246 250 256 259 269 276 282 281 287 292 283
329 331 331 331 327 327 325 323 321 320 321 318 315 306 298 296 296 291 282 269 260 251 249 252 260 267 259 255 252 252 255 254 249 248 253 259 267 270 274 274 273 278 280
323 324 325 323 321 321 318 313 313 312 305 302 301 301 296 294 296 291 283 270 263 256 250 245 247 253 255 261 265 265 266 265 266 261 259 262 271 274 266 271 277 286 293
323 322 321 316 311 310 307 307 309 305 300 298 294 292 292 291 291 289 285 274 265 264 262 254 247 247 245 239 242 247 263 280 335 330 324 320 322 319 304 277 276 282 288
317 315 312 307 301 299 299 300 301 298 294 297 292 290 285 286 287 286 283 270 265 264 261 257 251 247 241 225 235 233 240 261 288 324 345 347 341 354 352 286 266 265 283
316 309 306 304 302 298 298 296 296 295 292 289 288 288 287 286 281 282 279 269 262 263 261 257 253 244 243 233 238 246 246 256 257 271 297 318 341 338 340 336 320 284 275
313 306 304 306 304 299 297 296 294 290 286 286 287 289 288 289 283 282 283 275 275 265 259 256 257 250 249 248 248 249 235 217 207 216 245 281 308 316 324 327 332 328 316
306 301 302 304 300 297 292 292 293 288 282 282 283 285 291 292 289 291 288 283 278 272 269 265 261 250 248 252 241 207 212 226 215 226 239 263 291 313 318 321 342 345 328
294 296 298 297 296 297 291 282 279 277 278 277 278 283 289 292 290 290 288 285 278 268 268 265 255 240 224 186 166 201 250 250 250 247 265 292 317 320 317 328 331 332 318
290 290 292 291 291 291 287 282 280 276 272 277 277 277 279 281 286 291 289 281 275 268 266 250 238 234 222 203 176 201 276 254 256 264 251 271 293 306 321 332 323 316 306
285 286 287 286 287 286 288 292 286 286 289 286 285 286 285 285 291 290 290 282 274 254 229 226 226 227 233 231 225 227 236 245 259 259 254 252 265 278 294 305 303 298 300
280 283 283 281 280 282 283 284 292 297 293 291 293 298 298 296 296 298 296 288 276 247 229 231 232 228 228 233 236 236 244 256 259 249 247 254 262 269 271 274 283 294 299
284 282 280 278 278 278 278 279 280 285 294 298 304 308 312 309 306 305 303 293 274 263 251 246 244 242 235 232 234 238 240 241 243 248 249 250 251 254 258 262 268 282 292
285 283 284 285 281 279 278 279 280 280 282 292 304 314 326 322 325 323 322 298 274 268 269 263 256 251 247 245 244 242 238 236 241 246 247 247 246 247 252 259 266 267 275
283 284 287 284 285 284 283 281 282 283 285 287 291 303 314 314 311 322 335 320 298 292 289 281 278 269 259 249 245 241 243 245 245 247 248 249 250 248 248 252 256 261 267
290 291 291 287 283 284 284 284 283 282 282 286 291 298 303 299 297 297 298 297 297 295 290 284 276 267 259 249 245 243 247 254 254 257 259 257 254 252 251 251 252 254 262
286 288 290 290 291 290 289 288 284 282 285 288 293 300 306 302 292 287 288 295 303 301 295 286 280 273 264 253 246 244 245 248 248 248 258 261 256 250 246 245 249 255 256
286 288 291 292 291 291 291 289 286 285 288 289 291 297 299 295 293 292 295 302 303 300 299 290 284 288 288 276 268 258 251 249 248 246 247 250 252 248 241 241 243 249 252
286 284 287 291 292 291 292 293 290 286 284 285 288 290 289 287 287 290 295 297 298 295 293 288 281 279 284 288 277 268 266 264 258 247 243 244 246 245 239 238 242 243 248
289 288 289 288 288 288 290 289 288 287 286 285 286 287 288 286 284 287 290 290 290 287 289 288 283 282 280 280 281 276 271 270 264 251 240 237 240 238 232 234 234 237 240
294 292 290 288 286 284 282 283 284 285 284 284 282 281 281 282 284 285 284 282 284 285 285 283 279 282 283 281 278 278 271 264 258 246 233 231 232 230 221 223 226 231 237